Custer, SD

2:24 AM MST on December 14, 2017 (GMT -0700)
Custer County

Weather History for KCUT - October, 2013

Change the Weather History Date:

Tuesday, October 8, 2013

  Actual Average Record
Temperature  
Mean Temperature 50 °F 45 °F  
Max Temperature 63 °F 57 °F 82 °F (1956)
Min Temperature 37 °F 33 °F 8 °F (1946)
Degree Days  
Heating Degree Days 15 20  
Month to date heating degree days 174 151  
Since 1 July heating degree days 493 637  
Cooling Degree Days 0 0  
Month to date cooling degree days 0 0  
Year to date cooling degree days 187 177  
Moisture  
Dew Point 31 °F    
Average Humidity 53    
Maximum Humidity 79    
Minimum Humidity 27    
Precipitation  
Precipitation 0.00 in 0.05 in 0.58 in (1993)
Month to date precipitation 1.60 0.50  
Year to date precipitation 18.85 16.99  
Sea Level Pressure  
Sea Level Pressure 29.73 in    
Wind  
Wind Speed 5 mph (West)    
Max Wind Speed 12 mph    
Max Gust Speed 18 mph    
Visibility 10 miles    
Events      
T = Trace of Precipitation, MM = Missing Value Source: NWS Daily Summary

Daily Weather History Graph

Daily Weather History Graph

Search for Another Location

Airport or City:

Trip Planner

Search our weather history database for the weather conditions in past years. The results will help you decide how hot, cold, wet, or windy it might be!

Date:

Astronomy

Oct. 08, 2013 Rise Set
Actual Time 7:00 AM MDT 6:22 PM MDT
Civil Twilight 6:31 AM MDT 6:51 PM MDT
Nautical Twilight 5:58 AM MDT 7:24 PM MDT
Astronomical Twilight 5:25 AM MDT 7:57 PM MDT
Moon 11:04 AM MDT (10/8) 8:53 PM MDT (10/8)
Length of Visible Light 12h 19m
Length of Day
11h 21m
Waxing Crescent, 16% of the Moon is Illuminated
Oct 8
Waxing Crescent
Oct 11
First Quarter
Oct 18
Full
Oct 26
Last Quarter
Nov 3
New

Hourly Weather History & Observations

Time (MDT) Temp. Windchill Dew Point Humidity Pressure Visibility Wind Dir Wind Speed Gust Speed Precip Events Conditions
12:53 AM 46.9 °F - 28.0 °F 48% 29.74 in 10.0 mi WNW 4.6 mph - N/A   Clear
1:53 AM 52.0 °F - 27.0 °F 38% 29.71 in 10.0 mi West 5.8 mph - N/A   Clear
2:53 AM 50.0 °F - 28.0 °F 43% 29.70 in 10.0 mi WSW 6.9 mph - N/A   Clear
3:53 AM 51.1 °F - 28.0 °F 41% 29.68 in 10.0 mi West 5.8 mph - N/A   Clear
4:53 AM 48.0 °F - 28.9 °F 48% 29.70 in 10.0 mi WSW 5.8 mph - N/A   Clear
5:53 AM 46.0 °F 44.8 °F 28.9 °F 51% 29.71 in 10.0 mi West 3.5 mph - N/A   Clear
6:53 AM 46.9 °F - 30.0 °F 52% 29.71 in 10.0 mi WNW 3.5 mph - N/A   Clear
7:53 AM 48.0 °F - 30.0 °F 50% 29.72 in 10.0 mi WNW 4.6 mph - N/A   Clear
8:53 AM 48.9 °F - 30.0 °F 48% 29.73 in 10.0 mi West 6.9 mph - N/A   Clear
9:53 AM 50.0 °F - 30.9 °F 48% 29.74 in 10.0 mi WSW 4.6 mph - N/A   Clear
10:53 AM 52.0 °F - 32.0 °F 47% 29.72 in 10.0 mi WSW 9.2 mph - N/A   Clear
11:53 AM 55.9 °F - 30.9 °F 39% 29.73 in 10.0 mi Variable 5.8 mph - N/A   Clear
12:53 PM 57.9 °F - 33.1 °F 39% 29.70 in 10.0 mi SW 3.5 mph - N/A   Clear
1:53 PM 60.1 °F - 30.0 °F 32% 29.67 in 10.0 mi WSW 6.9 mph - N/A   Clear
2:53 PM 62.1 °F - 28.0 °F 28% 29.67 in 10.0 mi Variable 6.9 mph - N/A   Clear
3:53 PM 62.1 °F - 30.9 °F 31% 29.66 in 10.0 mi WSW 9.2 mph 17.3 mph N/A   Clear
4:53 PM 57.9 °F - 33.1 °F 39% 29.69 in 10.0 mi West 4.6 mph - N/A   Clear
5:53 PM 52.0 °F - 35.1 °F 53% 29.73 in 10.0 mi ESE 5.8 mph - N/A   Clear
6:53 PM 46.0 °F - 34.0 °F 63% 29.78 in 10.0 mi Calm Calm - N/A   Clear
7:53 PM 43.0 °F 40.3 °F 33.1 °F 68% 29.80 in 10.0 mi North 4.6 mph - N/A   Clear
8:53 PM 41.0 °F - 33.1 °F 73% 29.83 in 10.0 mi Calm Calm - N/A   Clear
9:53 PM 39.9 °F - 33.1 °F 77% 29.84 in 10.0 mi Calm Calm - N/A   Mostly Cloudy
10:53 PM 39.0 °F - 33.1 °F 79% 29.84 in 10.0 mi Calm Calm - N/A   Partly Cloudy
11:53 PM 39.0 °F 36.8 °F 33.1 °F 79% 29.83 in 10.0 mi NNW 3.5 mph - N/A   Overcast